CARTOSAT-1 - Orbit

View from above orbital plane
View from above orbital plane
View from above satellite
View from above satellite

Ground track
Ground track

The orbit data is extracted from the following two-line orbital elements,

1 28649U 05017A   13139.75380039  .00001546  00000-0  19467-3 0   542
2 28649 097.8714 215.1392 0002244 126.7136 233.4284 14.83446954435161
Epoch (UTC): 19 May 2013 18:05:28
Eccentricity: 0.0002244
inclination: 97.8714°
perigee height: 617 km
apogee height: 620 km
right ascension of ascending node: 215.1392°
argument of perigee: 126.7136°
revolutions per day: 14.83446954
mean anomaly at epoch: 233.4284°
orbit number at epoch: 43516

The dashed part of the orbit path shows where the satellite is in the earth's shadow,  

Developed and maintained by Chris Peat, Heavens-Above GmbH. Please read the updated FAQ before sending e-mail. Imprint. DLR